Station 42019 (LLNR 1285) - FREEPORT, TX - 60 NM South of Freeport, TX Image indicating link to RSS feed of recent meteorological observations for station 42019


Conditions at 42019 as of
(12:30 pm CDT)
1730 GMT on 06/23/2024:
     

Click on the graph icon in the table below to see a time series plot of the last five days of that observation.

5-day plot - Wind Direction Wind Direction (WDIR):ESE ( 110 deg true )
5-day plot - Wind Speed Wind Speed (WSPD): 9.7 kts
5-day plot - Wind Gust Wind Gust (GST): 11.7 kts
5-day plot - Atmospheric Pressure Atmospheric Pressure (PRES):29.96 in
5-day plot - Water Temperature Water Temperature (WTMP): 84.7 °F
5-day plot - Wind Speed at 10 Meters Wind Speed at 10 meters (WSPD10M): 9.7 kts
5-day plot - Wind Speed at 20 Meters Wind Speed at 20 meters (WSPD20M): 9.7 kts
5-day plot -  Wind Speed, Wind Gust and Atmospheric Pressure Combined plot of Wind Speed, Gust, and Air Pressure
Supplemental Measurements
Highest 1-minute Wind Speed
Time (CDT)5-day plot - 1-Minute Wind Speed WSPD 5-day plot - 1-Minute Wind Direction WDIR
12:22 pm 9.7 kts-
Previous observations
TIME
(CDT)
5-day plot - Wind Direction
WDIR
 
5-day plot - Wind Speed
WSPD
kts
5-day plot - Wind Gust
GST
kts
5-day plot - Wave Height
WVHT
ft
5-day plot - Dominant Wave Period
DPD
sec
5-day plot - Average Wave Period
APD
sec
5-day plot - Mean Wave Direction
MWD
 
5-day plot - Atmospheric Pressure
PRES
in
5-day plot - Pressure Tendency
PTDY
in
5-day plot - Air Temperature
ATMP
°F
5-day plot - Water Temperature
WTMP
°F
5-day plot - Dew Point
DEWP
°F
5-day plot - Salinity
SAL
psu
5-day plot - Visibility
VIS
nmi
5-day plot - Tide (above MLLW)
TIDE
ft
2024-06-23 12:20 pmESE 9.7 11.7 4.9 85.5ESE29.96-- 84.7----
2024-06-23 12:10 pmESE 9.7 11.7----29.96-- 84.7----
2024-06-23 12:00 pmESE 9.7 11.7----29.96+0.00- 84.7----
2024-06-23 11:50 am E 9.7 11.7 4.6 85.3ESE29.96-- 84.7----
2024-06-23 11:40 am E 9.7 13.6 4.6-5.3ESE29.96-- 84.6----
2024-06-23 11:30 am E 9.7 13.6----29.96-- 84.6----
2024-06-23 11:20 am E 9.7 13.6 4.6 95.3ESE29.96-- 84.6----
2024-06-23 11:10 am E 11.7 13.6 4.6-5.3ESE29.96-- 84.6----
2024-06-23 11:00 am E 11.7 13.6----29.96+0.02- 84.6----
2024-06-23 10:50 am E 11.7 13.6 4.6 85.3ESE29.96-- 84.6----
2024-06-23 10:40 am E 9.7 13.6----29.96-- 84.6----
2024-06-23 10:30 am E 11.7 13.6----29.96-- 84.6----
2024-06-23 10:20 am E 11.7 13.6 4.6 95.2ESE29.96-- 84.6----
2024-06-23 10:10 am E 11.7 13.6 4.6-5.2ESE29.96-- 84.6----
2024-06-23 10:00 am E 11.7 13.6----29.96+0.04- 84.6----
2024-06-23 09:50 am E 9.7 13.6 4.9 85.3ESE29.95-- 84.6----
2024-06-23 09:40 am E 11.7 13.6----29.95-- 84.6----
2024-06-23 09:30 am E 11.7 13.6----29.95-- 84.6----
2024-06-23 09:20 am E 9.7 13.6 4.9 85.3ESE29.96-- 84.4----
2024-06-23 09:10 amESE 9.7 13.6 4.9-5.3ESE29.96-- 84.4----
2024-06-23 09:00 am SE 7.8 11.7----29.95+0.04- 84.4----
2024-06-23 08:50 amSSE 9.7 13.6 4.6 85.2ESE29.95-- 84.4----
2024-06-23 08:40 am SE 11.7 15.5 4.6-5.2ESE29.95-- 84.4----
2024-06-23 08:30 am SE 13.6 15.5----29.94-- 84.4----
2024-06-23 08:20 amESE 11.7 15.5 4.9 85.3ESE29.94-- 84.4----
2024-06-23 08:10 amESE 9.7 11.7 4.9-5.3ESE29.93-- 84.4----
2024-06-23 08:00 am SE 7.8 9.7----29.94+0.03- 84.4----
2024-06-23 07:50 amSSE 7.8 9.7 5.2 85.5ESE29.93-- 84.4----
2024-06-23 07:40 amSSE 9.7 13.6----29.93-- 84.4----
2024-06-23 07:30 amESE 11.7 15.5----29.93-- 84.4----
2024-06-23 07:20 amESE 13.6 17.5 5.6 85.6ESE29.92-- 84.4----
2024-06-23 07:10 amESE 11.7 15.5 5.6-5.6ESE29.92-- 84.4----
2024-06-23 07:00 amESE 11.7 13.6----29.92+0.01- 84.4----
2024-06-23 06:50 amESE 11.7 15.5 5.6 85.5ESE29.92-- 84.4----
2024-06-23 06:40 amESE 11.7 13.6----29.92-- 84.4----
2024-06-23 06:30 amESE 11.7 13.6----29.91-- 84.4----
2024-06-23 06:20 amESE 11.7 15.5 5.2 85.4ESE29.91-- 84.4----
2024-06-23 06:10 amESE 11.7 15.5 5.2-5.4ESE29.91-- 84.4----
2024-06-23 06:00 amESE 11.7 15.5----29.91+0.00- 84.4----
2024-06-23 05:50 amESE 13.6 15.5 5.6 85.4ESE29.91-- 84.4----
2024-06-23 05:40 amESE 13.6 17.5----29.91-- 84.2----
2024-06-23 05:30 amESE 11.7 15.5----29.91-- 84.2----
2024-06-23 05:20 amESE 13.6 15.5 5.6 85.4ESE29.91-- 84.2----
2024-06-23 05:10 am E 13.6 17.5 5.6-5.4ESE29.91-- 84.2----
2024-06-23 05:00 amESE 13.6 15.5----29.91-0.03- 84.2----
2024-06-23 04:50 amESE 13.6 17.5 5.6 85.4ESE29.91-- 84.2----
2024-06-23 04:40 am E 13.6 15.5----29.90-- 84.2----
2024-06-23 04:30 am E 11.7 15.5----29.91-- 84.2----
2024-06-23 04:20 am E 13.6 17.5 5.2 85.2ESE29.91-- 84.2----
2024-06-23 04:10 am E 13.6 15.5 5.2-5.2ESE29.91-- 84.2----
2024-06-23 04:00 am E 13.6 15.5----29.91-0.05- 84.2----
2024-06-23 03:50 am E 11.7 15.5 5.6 85.7ESE29.91-- 84.2----
2024-06-23 03:40 am E 11.7 15.5 5.6-5.7ESE29.91-- 84.2----
2024-06-23 03:30 am E 11.7 15.5----29.91-- 84.2----
2024-06-23 03:20 am E 11.7 15.5 5.6 85.7ESE29.91-- 84.0----
2024-06-23 03:10 am E 13.6 15.5 5.6-5.7ESE29.91-- 84.0----
2024-06-23 03:00 am E 11.7 15.5----29.91-0.05- 84.0----
2024-06-23 02:50 am E 13.6 15.5 5.2 85.3 SE29.92-- 84.0----
2024-06-23 02:40 am E 13.6 15.5 5.2-5.3 SE29.92-- 84.0----
2024-06-23 02:30 am E 13.6 17.5----29.93-- 84.0----
2024-06-23 02:20 am E 11.7 15.5 5.9 85.4 SE29.93-- 84.0----
2024-06-23 02:10 am E 11.7 15.5 5.9-5.4 SE29.93-- 84.0----
2024-06-23 02:00 am E 13.6 17.5----29.93-0.04- 84.0----
2024-06-23 01:50 am E 13.6 19.4 5.9 85.5ESE29.93-- 84.0----
2024-06-23 01:40 am E 13.6 17.5----29.94-- 84.0----
2024-06-23 01:30 am E 13.6 15.5----29.94-- 84.0----
2024-06-23 01:20 am E 13.6 15.5 6.2 85.7ESE29.94-- 84.0----
2024-06-23 01:10 am E 13.6 15.5 6.2-5.7ESE29.95-- 84.0----
2024-06-23 01:00 am E 11.7 15.5----29.95+0.00- 84.0----
2024-06-23 12:50 am E 13.6 15.5 6.2 85.6ESE29.96-- 84.0----
2024-06-23 12:40 am E 13.6 17.5----29.96-- 84.0----
2024-06-23 12:30 am E 13.6 17.5----29.96-- 84.0----
2024-06-23 12:20 am E 13.6 17.5 6.2 75.5ESE29.96-- 84.0----
2024-06-23 12:10 am E 13.6 15.5 6.2-5.5ESE29.96-- 84.0----
2024-06-23 12:00 am E 11.7 15.5----29.96+0.01- 84.0----
2024-06-22 11:50 pmENE 13.6 17.5 5.9 85.4ESE29.97-- 84.2----
2024-06-22 11:40 pmENE 13.6 17.5 5.9-5.4ESE29.97-- 84.2----
2024-06-22 11:30 pm E 13.6 15.5----29.97-- 84.2----
2024-06-22 11:20 pm E 13.6 15.5 6.2 85.4ESE29.97-- 84.0----
2024-06-22 11:10 pm E 13.6 17.5----29.97-- 84.0----
2024-06-22 11:00 pm E 13.6 15.5----29.97+0.03- 84.0----
2024-06-22 10:50 pm E 13.6 17.5 6.2 85.5ESE29.97-- 84.2----
2024-06-22 10:40 pm E 13.6 17.5----29.96-- 84.0----
2024-06-22 10:30 pm E 13.6 17.5----29.96-- 84.0----
2024-06-22 10:20 pm E 13.6 17.5 5.9 85.3ESE29.96-- 84.2----
2024-06-22 10:10 pm E 13.6 17.5 5.9-5.3ESE29.96-- 84.2----
2024-06-22 10:00 pm E 15.5 17.5----29.96+0.02- 84.2----
2024-06-22 09:50 pmENE 15.5 17.5 6.2 85.3ESE29.95-- 84.2----
2024-06-22 09:40 pmENE 13.6 17.5----29.95-- 84.2----
2024-06-22 09:30 pmENE 15.5 17.5----29.95-- 84.2----
2024-06-22 09:20 pmENE 13.6 17.5 6.2 85.5ESE29.95-- 84.2----
2024-06-22 09:10 pmENE 15.5 17.5 6.2-5.5ESE29.95-- 84.2----
2024-06-22 09:00 pmENE 13.6 17.5----29.95+0.01- 84.2----
2024-06-22 08:50 pmENE 15.5 17.5 6.6 75.5ESE29.95-- 84.2----
2024-06-22 08:40 pm E 13.6 17.5 6.6-5.5ESE29.94-- 84.2----
2024-06-22 08:30 pmENE 15.5 17.5----29.94-- 84.2----
2024-06-22 08:20 pmENE 15.5 19.4 5.9 85.3ESE29.94-- 84.2----
2024-06-22 08:10 pmENE 15.5 19.4 5.9-5.3ESE29.95-- 84.2----
2024-06-22 08:00 pmENE 15.5 19.4----29.94+0.00- 84.2----
2024-06-22 07:50 pmENE 15.5 19.4 5.6 85.3ESE29.94-- 84.2----
2024-06-22 07:40 pmENE 15.5 19.4 5.6-5.3ESE29.94-- 84.2----
2024-06-22 07:30 pmENE 15.5 19.4----29.94-- 84.2----
2024-06-22 07:20 pmENE 15.5 17.5 5.9 85.3ESE29.94-- 84.2----
2024-06-22 07:10 pmENE 15.5 19.4 5.9-5.3ESE29.94-- 84.2----
2024-06-22 07:00 pmENE 15.5 19.4----29.94-0.01- 84.2----
2024-06-22 06:50 pmENE 15.5 17.5 5.9 85.3ESE29.94-- 84.2----
2024-06-22 06:40 pmENE 15.5 19.4----29.93-- 84.2----
2024-06-22 06:10 pmENE 15.5 19.4 5.6-5.1ESE29.94-- 84.2----
2024-06-22 06:00 pmENE 15.5 19.4----29.93-0.04- 84.2----
2024-06-22 05:50 pmENE 15.5 19.4 5.6 85.2ESE29.93-- 84.2----
2024-06-22 05:40 pmENE 15.5 19.4 5.6-5.2ESE29.93-- 84.2----
2024-06-22 05:30 pmENE 15.5 21.4----29.94-- 84.2----
2024-06-22 05:20 pmENE 15.5 19.4 5.9 75.3ESE29.94-- 84.2----
2024-06-22 05:10 pmENE 15.5 19.4 5.9-5.3ESE29.94-- 84.2----
2024-06-22 05:00 pmENE 15.5 19.4----29.94-0.04- 84.2----
2024-06-22 04:50 pmENE 15.5 19.4 5.9 85.3ESE29.95-- 84.2----
2024-06-22 04:40 pmENE 15.5 19.4----29.95-- 84.2----
2024-06-22 04:30 pmENE 15.5 19.4----29.95-- 84.2----
2024-06-22 04:20 pmENE 15.5 21.4 5.6 85.1ESE29.95-- 84.2----
2024-06-22 04:10 pmENE 15.5 19.4 5.6-5.1ESE29.95-- 84.2----
2024-06-22 04:00 pmENE 15.5 21.4----29.95-0.05- 84.2----
2024-06-22 03:50 pmENE 15.5 19.4 5.6 85.1ESE29.96-- 84.2----
2024-06-22 03:40 pmENE 15.5 19.4 5.6-5.1ESE29.96-- 84.2----
2024-06-22 03:30 pmENE 15.5 19.4----29.96-- 84.2----
2024-06-22 03:20 pmENE 15.5 17.5 5.6 85.1 SE29.97-- 84.2----
2024-06-22 03:10 pmENE 15.5 19.4 5.6-5.1 SE29.97-- 84.2----
2024-06-22 03:00 pmENE 15.5 17.5----29.97-0.03- 84.2----
2024-06-22 02:50 pmENE 15.5 17.5 5.6 85.1ESE29.98-- 84.2----
2024-06-22 02:40 pm E 15.5 17.5 5.6-5.1ESE29.98-- 84.2----
2024-06-22 02:30 pmENE 15.5 17.5----29.98-- 84.2----
2024-06-22 02:20 pm E 15.5 17.5----29.98-- 84.2----
2024-06-22 02:10 pm E 15.5 17.5----29.98-- 84.2----
2024-06-22 02:00 pm E 15.5 19.4----29.99-0.03- 84.2----
2024-06-22 01:50 pm E 15.5 19.4 5.9 85.2ESE29.99-- 84.2----
2024-06-22 01:40 pm E 15.5 19.4 5.9-5.2ESE29.99-- 84.2----
2024-06-22 01:30 pm E 15.5 19.4----30.00-- 84.0----
2024-06-22 01:20 pmENE 15.5 19.4 5.6 85.0ESE30.00-- 84.0----
2024-06-22 01:10 pm E 15.5 19.4 5.6-5.0ESE30.00-- 84.0----
2024-06-22 01:00 pm E 15.5 19.4----30.00-0.02- 84.0----
2024-06-22 12:50 pmENE 15.5 19.4 5.9 85.1ESE30.00-- 84.0----

Detailed Wave Summary
for 42019 as of (12:10 pm CDT)
1710 GMT on 06/23/2024:

These wave data are displayed in rounded times.

     

Click on the graph icon in the table below to see a time series plot of the last five days of that observation.

5-day plot - Significant Wave Height Significant Wave Height (WVHT): 4.9 ft
5-day plot - Swell Height Swell Height (SwH): 4.3 ft
5-day plot - Swell Period Swell Period (SwP): 8.3 sec
5-day plot - Swell Direction Swell Direction (SwD):ESE
5-day plot - Wind Wave Height Wind Wave Height (WWH): 2.0 ft
5-day plot - Wind Wave Period Wind Wave Period (WWP): 4.3 sec
5-day plot - Wind Wave Direction Wind Wave Direction (WWD): E
5-day plot - Wave Steepness Wave Steepness (STEEPNESS): AVERAGE
5-day plot - Average Wave Period Average Wave Period (APD): 5.5 sec
Previous observations
TIME
(CDT)
5-day plot - Wave Height
WVHT
ft
5-day plot - Swell Height
SwH
ft
5-day plot - Swell Period
SwP
sec
5-day plot - Swell Direction
SwD
 
5-day plot - Wind Wave Height
WWH
ft
5-day plot - Wind Wave Period
WWP
sec
5-day plot - Wind Wave Direction
WWD
 
5-day plot - Wave Steepness
STEEPNESS
 
5-day plot - Average Wave Period
APD
sec
2024-06-23 11:40 am 4.6 3.9 7.7ESE 2.3 4.3 E AVERAGE 5.3
2024-06-23 11:10 am 4.6 3.9 9.1ESE 2.6 4.5 ESE SWELL 5.3
2024-06-23 10:40 am 4.6 3.6 8.3ESE 2.6 5.0 E AVERAGE 5.3
2024-06-23 10:10 am 4.6 3.6 9.1ESE 2.6 4.3 ESE SWELL 5.2
2024-06-23 09:40 am 4.9 3.9 8.3ESE 2.6 5.0 ESE AVERAGE 5.3
2024-06-23 09:10 am 4.9 4.3 7.7ESE 2.3 4.2 ESE AVERAGE 5.3
2024-06-23 08:40 am 4.6 3.6 8.3ESE 3.3 5.3 E AVERAGE 5.2
2024-06-23 08:10 am 4.9 4.3 8.3ESE 2.6 4.3 ESE AVERAGE 5.3
2024-06-23 07:40 am 5.2 4.6 7.7ESE 2.6 4.5 ESE AVERAGE 5.5
2024-06-23 07:10 am 5.6 4.6 8.3ESE 3.3 4.8 ESE AVERAGE 5.6
2024-06-23 06:40 am 5.6 4.6 8.3ESE 3.0 5.6 E AVERAGE 5.5
2024-06-23 06:10 am 5.2 4.3 8.3ESE 3.3 5.6 ESE AVERAGE 5.4
2024-06-23 05:40 am 5.6 3.9 8.3ESE 3.6 6.2 ESE AVERAGE 5.4
2024-06-23 05:10 am 5.6 3.9 8.3ESE 3.9 5.6 ESE AVERAGE 5.4
2024-06-23 04:40 am 5.6 3.9 8.3ESE 3.9 5.9 ESE AVERAGE 5.4
2024-06-23 04:10 am 5.2 3.3 7.7ESE 3.9 6.2 ESE AVERAGE 5.2
2024-06-23 03:40 am 5.6 4.6 8.3ESE 3.6 6.2 ESE AVERAGE 5.7
2024-06-23 03:10 am 5.6 4.6 7.7ESE 3.3 5.3 ESE STEEP 5.7
2024-06-23 02:40 am 5.2 3.6 8.3 SE 3.9 5.9 ESE AVERAGE 5.3
2024-06-23 02:10 am 5.9 4.3 8.3 SE 3.6 4.5 E AVERAGE 5.4
2024-06-23 01:40 am 5.9 4.3 8.3ESE 3.9 6.2 ESE AVERAGE 5.5
2024-06-23 01:10 am 6.2 4.9 8.3ESE 3.9 4.5 E AVERAGE 5.7
2024-06-23 12:40 am 6.2 4.3 8.3ESE 4.3 6.7 ESE AVERAGE 5.6
2024-06-23 12:10 am 6.2 4.6 7.1ESE 4.3 4.5 ESE STEEP 5.5
2024-06-22 11:40 pm 5.9 3.6 8.3ESE 4.6 4.8 ESE AVERAGE 5.4
2024-06-22 11:10 pm 6.2 4.3 7.7ESE 4.3 5.9 ESE STEEP 5.4
2024-06-22 10:40 pm 6.2 4.3 8.3ESE 4.3 6.2 ESE AVERAGE 5.5
2024-06-22 10:10 pm 5.9 3.6 8.3ESE 4.6 6.2 ESE AVERAGE 5.3
2024-06-22 09:40 pm 6.2 3.9 8.3ESE 4.6 5.3 ESE AVERAGE 5.3
2024-06-22 09:10 pm 6.2 3.9 8.3ESE 4.9 6.7 ESE AVERAGE 5.5
2024-06-22 08:40 pm 6.6 0.0-- 6.6 7.1 ESE STEEP 5.5
2024-06-22 08:10 pm 5.9 3.6 7.7ESE 4.6 6.2 ESE STEEP 5.3
2024-06-22 07:40 pm 5.6 3.9 8.3ESE 4.3 5.9 ESE AVERAGE 5.3
2024-06-22 07:10 pm 5.9 3.9 8.3ESE 4.3 6.7 ESE AVERAGE 5.3
2024-06-22 06:40 pm 5.9 3.0 8.3ESE 5.2 6.2 ESE AVERAGE 5.3
2024-06-22 06:10 pm 5.6 0.0-- 5.6 7.7 ESE AVERAGE 5.1
2024-06-22 05:40 pm 5.6 3.6 7.7ESE 4.3 6.2 ESE STEEP 5.2
2024-06-22 05:10 pm 5.9 0.0-- 5.9 7.1 ESE STEEP 5.3
2024-06-22 04:40 pm 5.9 2.6 8.3ESE 5.2 7.1 ESE AVERAGE 5.3
2024-06-22 04:10 pm 5.6 3.9 7.7ESE 3.9 6.2 ESE AVERAGE 5.1
2024-06-22 03:40 pm 5.6 3.3 8.3ESE 4.6 6.2 ESE AVERAGE 5.1
2024-06-22 03:10 pm 5.6 3.3 7.7 SE 4.6 6.7 ESE STEEP 5.1
2024-06-22 02:40 pm 5.6 3.3 8.3ESE 4.6 5.6 ESE AVERAGE 5.1
2024-06-22 01:40 pm 5.9 2.6 8.3ESE 5.2 5.0 E AVERAGE 5.2
2024-06-22 01:10 pm 5.6 3.0 7.7ESE 4.9 6.2 ESE STEEP 5.0

Plot of wave energy versus frequency (and period)